Aurora, CO

3:59 AM MDT on April 25, 2018 (GMT -0600)
Buckley Air Force Base

Weather History for KBKF - March, 2013

Change the Weather History Date:

Tuesday, March 26, 2013

  Actual Average Record
Temperature  
Mean Temperature 32 °F -  
Max Temperature 44 °F 55 °F 78 °F (2004)
Min Temperature 19 °F 29 °F 14 °F (2009)
Degree Days  
Heating Degree Days 34    
Moisture  
Dew Point 20 °F    
Average Humidity 63    
Maximum Humidity 100    
Minimum Humidity 41    
Precipitation  
Precipitation 0.00 in - - ()
Snow  
Snow 0.00 in - - ()
Snow Depth 6.00 in    
Sea Level Pressure  
Sea Level Pressure 30.06 in    
Wind  
Wind Speed 10 mph (South)    
Max Wind Speed 15 mph    
Max Gust Speed -    
Visibility 10 miles    
Events      
Averages and records for this station are not official NWS values.
T = Trace of Precipitation, MM = Missing Value Source: NWS Daily Summary

Daily Weather History Graph

Daily Weather History Graph

Search for Another Location

Airport or City:

Astronomy

Mar. 26, 2013 Rise Set
Actual Time 6:52 AM MDT 7:17 PM MDT
Civil Twilight 6:25 AM MDT 7:44 PM MDT
Nautical Twilight 5:53 AM MDT 8:16 PM MDT
Astronomical Twilight 5:21 AM MDT 8:48 PM MDT
Moon 6:57 PM MDT (3/26) 6:10 AM MDT (3/26)
Length of Visible Light 13h 19m
Length of Day
12h 25m
Waxing Gibbous, 99% of the Moon is Illuminated
Mar 26
Waxing Gibbous
Mar 27
Full
Apr 2
Last Quarter
Apr 10
New
Apr 18
First Quarter

Hourly Weather History & Observations

Time (MDT) Temp. Windchill Dew Point Humidity Pressure Visibility Wind Dir Wind Speed Gust Speed Precip Events Conditions
12:55 AM 21.2 °F 8.3 °F 10.4 °F 63% 30.23 in 25.0 mi South 13.8 mph - N/A   Partly Cloudy
1:55 AM 21.2 °F 7.8 °F 10.4 °F 63% 30.22 in 25.0 mi South 15.0 mph - N/A   Partly Cloudy
2:55 AM 21.2 °F 8.3 °F 10.4 °F 63% 30.17 in 25.0 mi South 13.8 mph - N/A   Partly Cloudy
3:55 AM 21.2 °F 14.9 °F 10.4 °F 63% 30.16 in 25.0 mi SSE 4.6 mph - N/A   Scattered Clouds
4:55 AM 19.4 °F 9.5 °F 8.6 °F 63% 30.14 in 25.0 mi SSW 8.1 mph - N/A   Scattered Clouds
5:55 AM 19.4 °F 14.3 °F 8.6 °F 63% 30.16 in 25.0 mi South 3.5 mph - N/A   Scattered Clouds
6:55 AM 23.0 °F 17.0 °F 8.6 °F 54% 30.15 in 70.0 mi South 4.6 mph - N/A   Mostly Cloudy
7:55 AM 26.6 °F 19.1 °F 8.6 °F 47% 30.14 in 70.0 mi SSW 6.9 mph - N/A   Mostly Cloudy
8:55 AM 32.0 °F 24.2 °F 14.0 °F 48% 30.11 in 70.0 mi SSW 9.2 mph - N/A   Mostly Cloudy
9:55 AM 35.6 °F 29.9 °F 14.0 °F 41% 30.08 in 70.0 mi SSE 6.9 mph - N/A   Mostly Cloudy
10:55 AM 41.0 °F 36.4 °F 19.4 °F 42% 30.05 in 70.0 mi SE 6.9 mph - N/A   Mostly Cloudy
11:55 AM 41.0 °F 35.8 °F 21.2 °F 45% 30.03 in 70.0 mi South 8.1 mph - N/A   Mostly Cloudy
12:55 PM 44.6 °F 38.4 °F 26.6 °F 49% 29.98 in 70.0 mi SE 12.7 mph - N/A   Scattered Clouds
1:55 PM 44.6 °F 38.4 °F 28.4 °F 53% 29.95 in 70.0 mi SE 12.7 mph - N/A   Scattered Clouds
2:55 PM 44.6 °F 38.1 °F 28.4 °F 53% 29.94 in 70.0 mi SE 13.8 mph - N/A   Mostly Cloudy
3:55 PM 44.6 °F 37.8 °F 28.4 °F 53% 29.93 in 25.0 mi SE 15.0 mph - N/A   Mostly Cloudy
4:55 PM 44.6 °F 38.1 °F 28.4 °F 53% 29.93 in 25.0 mi ESE 13.8 mph - N/A   Mostly Cloudy
5:55 PM 42.8 °F 37.0 °F 28.4 °F 57% 29.93 in 25.0 mi SE 10.4 mph - N/A   Mostly Cloudy
6:55 PM 35.6 °F 28.6 °F 32.0 °F 87% 29.98 in 25.0 mi NNW 9.2 mph - N/A   Mostly Cloudy
7:55 PM 32.0 °F - 32.0 °F 100% 30.00 in 25.0 mi West 1.2 mph - N/A   Mostly Cloudy
8:55 PM 32.0 °F 25.6 °F 32.0 °F 100% 30.01 in 25.0 mi WNW 6.9 mph - N/A   Mostly Cloudy
9:55 PM 32.0 °F 27.5 °F 26.6 °F 80% 30.03 in 25.0 mi NNW 4.6 mph - N/A   Mostly Cloudy
10:55 PM 32.0 °F - 26.6 °F 80% 30.03 in 25.0 mi West 2.3 mph - N/A   Mostly Cloudy
11:55 PM 30.2 °F 25.4 °F 26.6 °F 86% 30.04 in 10.0 mi West 4.6 mph - N/A   Mostly Cloudy